Year,Month,Day,Hour,Minute,Value (Times are PST for insolation in W/m^2)
2018,11,07,00,00,0.00
2018,11,07,00,01,0.00
2018,11,07,00,02,0.00
2018,11,07,00,03,0.00
2018,11,07,00,04,0.00
2018,11,07,00,05,0.00
2018,11,07,00,06,0.00
2018,11,07,00,07,0.00
2018,11,07,00,08,0.00
2018,11,07,00,09,0.00
2018,11,07,00,10,0.00
2018,11,07,00,11,0.00
2018,11,07,00,12,0.00
2018,11,07,00,13,0.00
2018,11,07,00,14,0.00
2018,11,07,00,15,0.00
2018,11,07,00,16,0.00
2018,11,07,00,17,0.00
2018,11,07,00,18,0.00
2018,11,07,00,19,0.00
2018,11,07,00,20,0.00
2018,11,07,00,21,0.00
2018,11,07,00,22,0.00
2018,11,07,00,23,0.00
2018,11,07,00,24,0.00
2018,11,07,00,25,0.00
2018,11,07,00,26,0.00
2018,11,07,00,27,0.00
2018,11,07,00,28,0.00
2018,11,07,00,29,0.00
2018,11,07,00,30,0.00
2018,11,07,00,31,0.00
2018,11,07,00,32,0.00
2018,11,07,00,33,0.00
2018,11,07,00,34,0.00
2018,11,07,00,35,0.00
2018,11,07,00,36,0.00
2018,11,07,00,37,0.00
2018,11,07,00,38,0.00
2018,11,07,00,39,0.00
2018,11,07,00,40,0.00
2018,11,07,00,41,0.00
2018,11,07,00,42,0.00
2018,11,07,00,43,0.00
2018,11,07,00,44,0.00
2018,11,07,00,45,0.00
2018,11,07,00,46,0.00
2018,11,07,00,47,0.00
2018,11,07,00,48,0.00
2018,11,07,00,49,0.00
2018,11,07,00,50,0.00
2018,11,07,00,51,0.00
2018,11,07,00,52,0.00
2018,11,07,00,53,0.00
2018,11,07,00,54,0.00
2018,11,07,00,55,0.00
2018,11,07,00,56,0.00
2018,11,07,00,57,0.00
2018,11,07,00,58,0.00
2018,11,07,00,59,0.00
2018,11,07,01,00,0.00
2018,11,07,01,01,0.00
2018,11,07,01,02,0.00
2018,11,07,01,03,0.00
2018,11,07,01,04,0.00
2018,11,07,01,05,0.00
2018,11,07,01,06,0.00
2018,11,07,01,07,0.00
2018,11,07,01,08,0.00
2018,11,07,01,09,0.00
2018,11,07,01,10,0.00
2018,11,07,01,11,0.00
2018,11,07,01,12,0.00
2018,11,07,01,13,0.00
2018,11,07,01,14,0.00
2018,11,07,01,15,0.00
2018,11,07,01,16,0.00
2018,11,07,01,17,0.00
2018,11,07,01,18,0.00
2018,11,07,01,19,0.00
2018,11,07,01,20,0.00
2018,11,07,01,21,0.00
2018,11,07,01,22,0.00
2018,11,07,01,23,0.00
2018,11,07,01,24,0.00
2018,11,07,01,25,0.00
2018,11,07,01,26,0.00
2018,11,07,01,27,0.00
2018,11,07,01,28,0.00
2018,11,07,01,29,0.00
2018,11,07,01,30,0.00
2018,11,07,01,31,0.00
2018,11,07,01,32,0.00
2018,11,07,01,33,0.00
2018,11,07,01,34,0.00
2018,11,07,01,35,0.00
2018,11,07,01,36,0.00
2018,11,07,01,37,0.00
2018,11,07,01,38,0.00
2018,11,07,01,39,0.00
2018,11,07,01,40,0.00
2018,11,07,01,41,0.00
2018,11,07,01,42,0.00
2018,11,07,01,43,0.00
2018,11,07,01,44,0.00
2018,11,07,01,45,0.00
2018,11,07,01,46,0.00
2018,11,07,01,47,0.00
2018,11,07,01,48,0.00
2018,11,07,01,49,0.00
2018,11,07,01,50,0.00
2018,11,07,01,51,0.00
2018,11,07,01,52,0.00
2018,11,07,01,53,0.00
2018,11,07,01,54,0.00
2018,11,07,01,55,0.00
2018,11,07,01,56,0.00
2018,11,07,01,57,0.00
2018,11,07,01,58,0.00
2018,11,07,01,59,0.00
2018,11,07,02,00,0.00
2018,11,07,02,01,0.00
2018,11,07,02,02,0.00
2018,11,07,02,03,0.00
2018,11,07,02,04,0.00
2018,11,07,02,05,0.00
2018,11,07,02,06,0.00
2018,11,07,02,07,0.00
2018,11,07,02,08,0.00
2018,11,07,02,09,0.00
2018,11,07,02,10,0.00
2018,11,07,02,11,0.00
2018,11,07,02,12,0.00
2018,11,07,02,13,0.00
2018,11,07,02,14,0.00
2018,11,07,02,15,0.00
2018,11,07,02,16,0.00
2018,11,07,02,17,0.00
2018,11,07,02,18,0.00
2018,11,07,02,19,0.00
2018,11,07,02,20,0.00
2018,11,07,02,21,0.00
2018,11,07,02,22,0.00
2018,11,07,02,23,0.00
2018,11,07,02,24,0.00
2018,11,07,02,25,0.00
2018,11,07,02,26,0.00
2018,11,07,02,27,0.00
2018,11,07,02,28,0.00
2018,11,07,02,29,0.00
2018,11,07,02,30,0.00
2018,11,07,02,31,0.00
2018,11,07,02,32,0.00
2018,11,07,02,33,0.00
2018,11,07,02,34,0.00
2018,11,07,02,35,0.00
2018,11,07,02,36,0.00
2018,11,07,02,37,0.00
2018,11,07,02,38,0.00
2018,11,07,02,39,0.00
2018,11,07,02,40,0.00
2018,11,07,02,41,0.00
2018,11,07,02,42,0.00
2018,11,07,02,43,0.00
2018,11,07,02,44,0.00
2018,11,07,02,45,0.00
2018,11,07,02,46,0.00
2018,11,07,02,47,0.00
2018,11,07,02,48,0.00
2018,11,07,02,49,0.00
2018,11,07,02,50,0.00
2018,11,07,02,51,0.00
2018,11,07,02,52,0.00
2018,11,07,02,53,0.00
2018,11,07,02,54,0.00
2018,11,07,02,55,0.00
2018,11,07,02,56,0.00
2018,11,07,02,57,0.00
2018,11,07,02,58,0.00
2018,11,07,02,59,0.00
2018,11,07,03,00,0.00
2018,11,07,03,01,0.00
2018,11,07,03,02,0.00
2018,11,07,03,03,0.00
2018,11,07,03,04,0.00
2018,11,07,03,05,0.00
2018,11,07,03,06,0.00
2018,11,07,03,07,0.00
2018,11,07,03,08,0.00
2018,11,07,03,09,0.00
2018,11,07,03,10,0.00
2018,11,07,03,11,0.00
2018,11,07,03,12,0.00
2018,11,07,03,13,0.00
2018,11,07,03,14,0.00
2018,11,07,03,15,0.00
2018,11,07,03,16,0.00
2018,11,07,03,17,0.00
2018,11,07,03,18,0.00
2018,11,07,03,19,0.00
2018,11,07,03,20,0.00
2018,11,07,03,21,0.00
2018,11,07,03,22,0.00
2018,11,07,03,23,0.00
2018,11,07,03,24,0.00
2018,11,07,03,25,0.00
2018,11,07,03,26,0.00
2018,11,07,03,27,0.00
2018,11,07,03,28,0.00
2018,11,07,03,29,0.00
2018,11,07,03,30,0.00
2018,11,07,03,31,0.00
2018,11,07,03,32,0.00
2018,11,07,03,33,0.00
2018,11,07,03,34,0.00
2018,11,07,03,35,0.00
2018,11,07,03,36,0.00
2018,11,07,03,37,0.00
2018,11,07,03,38,0.00
2018,11,07,03,39,0.00
2018,11,07,03,40,0.00
2018,11,07,03,41,0.00
2018,11,07,03,42,0.00
2018,11,07,03,43,0.00
2018,11,07,03,44,0.00
2018,11,07,03,45,0.00
2018,11,07,03,46,0.00
2018,11,07,03,47,0.00
2018,11,07,03,48,0.00
2018,11,07,03,49,0.00
2018,11,07,03,50,0.00
2018,11,07,03,51,0.00
2018,11,07,03,52,0.00
2018,11,07,03,53,0.00
2018,11,07,03,54,0.00
2018,11,07,03,55,0.00
2018,11,07,03,56,0.00
2018,11,07,03,57,0.00
2018,11,07,03,58,0.00
2018,11,07,03,59,0.00
2018,11,07,04,00,0.00
2018,11,07,04,01,0.00
2018,11,07,04,02,0.00
2018,11,07,04,03,0.00
2018,11,07,04,04,0.00
2018,11,07,04,05,0.00
2018,11,07,04,06,0.00
2018,11,07,04,07,0.00
2018,11,07,04,08,0.00
2018,11,07,04,09,0.00
2018,11,07,04,10,0.00
2018,11,07,04,11,0.00
2018,11,07,04,12,0.00
2018,11,07,04,13,0.00
2018,11,07,04,14,0.00
2018,11,07,04,15,0.00
2018,11,07,04,16,0.00
2018,11,07,04,17,0.00
2018,11,07,04,18,0.00
2018,11,07,04,19,0.00
2018,11,07,04,20,0.00
2018,11,07,04,21,0.00
2018,11,07,04,22,0.00
2018,11,07,04,23,0.00
2018,11,07,04,24,0.00
2018,11,07,04,25,0.00
2018,11,07,04,26,0.00
2018,11,07,04,27,0.00
2018,11,07,04,28,0.00
2018,11,07,04,29,0.00
2018,11,07,04,30,0.00
2018,11,07,04,31,0.00
2018,11,07,04,32,0.00
2018,11,07,04,33,0.00
2018,11,07,04,34,0.00
2018,11,07,04,35,0.00
2018,11,07,04,36,0.00
2018,11,07,04,37,0.00
2018,11,07,04,38,0.00
2018,11,07,04,39,0.00
2018,11,07,04,40,0.00
2018,11,07,04,41,0.00
2018,11,07,04,42,0.00
2018,11,07,04,43,0.00
2018,11,07,04,44,0.00
2018,11,07,04,45,0.00
2018,11,07,04,46,0.00
2018,11,07,04,47,0.00
2018,11,07,04,48,0.00
2018,11,07,04,49,0.00
2018,11,07,04,50,0.00
2018,11,07,04,51,0.00
2018,11,07,04,52,0.00
2018,11,07,04,53,0.00
2018,11,07,04,54,0.00
2018,11,07,04,55,0.00
2018,11,07,04,56,0.00
2018,11,07,04,57,0.00
2018,11,07,04,58,0.00
2018,11,07,04,59,0.00
2018,11,07,05,00,0.00
2018,11,07,05,01,0.00
2018,11,07,05,02,0.00
2018,11,07,05,03,0.00
2018,11,07,05,04,0.00
2018,11,07,05,05,0.00
2018,11,07,05,06,0.00
2018,11,07,05,07,0.00
2018,11,07,05,08,0.00
2018,11,07,05,09,0.00
2018,11,07,05,10,0.00
2018,11,07,05,11,0.00
2018,11,07,05,12,0.00
2018,11,07,05,13,0.00
2018,11,07,05,14,0.00
2018,11,07,05,15,0.00
2018,11,07,05,16,0.00
2018,11,07,05,17,0.00
2018,11,07,05,18,0.00
2018,11,07,05,19,0.00
2018,11,07,05,20,0.00
2018,11,07,05,21,0.00
2018,11,07,05,22,0.00
2018,11,07,05,23,0.00
2018,11,07,05,24,0.00
2018,11,07,05,25,0.00
2018,11,07,05,26,0.00
2018,11,07,05,27,0.00
2018,11,07,05,28,0.00
2018,11,07,05,29,0.00
2018,11,07,05,30,0.00
2018,11,07,05,31,0.00
2018,11,07,05,32,0.00
2018,11,07,05,33,0.00
2018,11,07,05,34,0.00
2018,11,07,05,35,0.00
2018,11,07,05,36,0.00
2018,11,07,05,37,0.00
2018,11,07,05,38,0.00
2018,11,07,05,39,0.00
2018,11,07,05,40,0.00
2018,11,07,05,41,0.00
2018,11,07,05,42,0.00
2018,11,07,05,43,0.00
2018,11,07,05,44,0.00
2018,11,07,05,45,0.00
2018,11,07,05,46,0.00
2018,11,07,05,47,0.00
2018,11,07,05,48,0.00
2018,11,07,05,49,0.00
2018,11,07,05,50,0.00
2018,11,07,05,51,0.00
2018,11,07,05,52,0.00
2018,11,07,05,53,0.00
2018,11,07,05,54,0.00
2018,11,07,05,55,0.00
2018,11,07,05,56,0.00
2018,11,07,05,57,0.00
2018,11,07,05,58,0.00
2018,11,07,05,59,0.00
2018,11,07,06,00,0.00
2018,11,07,06,01,0.00
2018,11,07,06,02,0.00
2018,11,07,06,03,0.00
2018,11,07,06,04,0.00
2018,11,07,06,05,0.00
2018,11,07,06,06,0.00
2018,11,07,06,07,0.00
2018,11,07,06,08,0.00
2018,11,07,06,09,0.00
2018,11,07,06,10,0.00
2018,11,07,06,11,0.00
2018,11,07,06,12,0.00
2018,11,07,06,13,0.00
2018,11,07,06,14,0.00
2018,11,07,06,15,0.00
2018,11,07,06,16,0.00
2018,11,07,06,17,0.00
2018,11,07,06,18,0.00
2018,11,07,06,19,0.00
2018,11,07,06,20,0.00
2018,11,07,06,21,0.00
2018,11,07,06,22,0.00
2018,11,07,06,23,0.00
2018,11,07,06,24,0.00
2018,11,07,06,25,0.00
2018,11,07,06,26,0.00
2018,11,07,06,27,0.00
2018,11,07,06,28,0.00
2018,11,07,06,29,0.00
2018,11,07,06,30,0.00
2018,11,07,06,31,0.00
2018,11,07,06,32,0.00
2018,11,07,06,33,0.00
2018,11,07,06,34,0.00
2018,11,07,06,35,0.00
2018,11,07,06,36,0.00
2018,11,07,06,37,0.00
2018,11,07,06,38,0.00
2018,11,07,06,39,0.00
2018,11,07,06,40,0.00
2018,11,07,06,41,0.00
2018,11,07,06,42,0.00
2018,11,07,06,43,0.00
2018,11,07,06,44,0.00
2018,11,07,06,45,0.00
2018,11,07,06,46,0.00
2018,11,07,06,47,0.00
2018,11,07,06,48,0.00
2018,11,07,06,49,0.00
2018,11,07,06,50,0.00
2018,11,07,06,51,0.00
2018,11,07,06,52,0.00
2018,11,07,06,53,0.00
2018,11,07,06,54,0.00
2018,11,07,06,55,0.00
2018,11,07,06,56,0.00
2018,11,07,06,57,0.00
2018,11,07,06,58,0.00
2018,11,07,06,59,0.00
2018,11,07,07,00,0.00
2018,11,07,07,01,0.00
2018,11,07,07,02,0.00
2018,11,07,07,03,0.00
2018,11,07,07,04,0.00
2018,11,07,07,05,0.00
2018,11,07,07,06,0.00
2018,11,07,07,07,0.00
2018,11,07,07,08,0.00
2018,11,07,07,09,2.60
2018,11,07,07,10,5.00
2018,11,07,07,11,5.00
2018,11,07,07,12,5.00
2018,11,07,07,13,5.00
2018,11,07,07,14,5.00
2018,11,07,07,15,6.10
2018,11,07,07,16,7.00
2018,11,07,07,17,7.00
2018,11,07,07,18,7.00
2018,11,07,07,19,7.00
2018,11,07,07,20,7.80
2018,11,07,07,21,9.00
2018,11,07,07,22,9.00
2018,11,07,07,23,9.00
2018,11,07,07,24,11.00
2018,11,07,07,25,11.00
2018,11,07,07,26,11.00
2018,11,07,07,27,11.60
2018,11,07,07,28,12.00
2018,11,07,07,29,12.00
2018,11,07,07,30,12.00
2018,11,07,07,31,12.60
2018,11,07,07,32,14.00
2018,11,07,07,33,14.00
2018,11,07,07,34,14.00
2018,11,07,07,35,14.10
2018,11,07,07,36,16.00
2018,11,07,07,37,16.00
2018,11,07,07,38,16.00
2018,11,07,07,39,16.00
2018,11,07,07,40,16.00
2018,11,07,07,41,16.10
2018,11,07,07,42,18.00
2018,11,07,07,43,18.00
2018,11,07,07,44,18.00
2018,11,07,07,45,18.00
2018,11,07,07,46,18.80
2018,11,07,07,47,19.00
2018,11,07,07,48,19.00
2018,11,07,07,49,19.00
2018,11,07,07,50,19.00
2018,11,07,07,51,19.00
2018,11,07,07,52,20.60
2018,11,07,07,53,21.00
2018,11,07,07,54,21.00
2018,11,07,07,55,21.00
2018,11,07,07,56,21.00
2018,11,07,07,57,22.30
2018,11,07,07,58,23.00
2018,11,07,07,59,23.00
2018,11,07,08,00,23.00
2018,11,07,08,01,23.80
2018,11,07,08,02,25.00
2018,11,07,08,03,25.00
2018,11,07,08,04,25.90
2018,11,07,08,05,46.00
2018,11,07,08,06,65.10
2018,11,07,08,07,67.80
2018,11,07,08,08,60.90
2018,11,07,08,09,66.40
2018,11,07,08,10,83.80
2018,11,07,08,11,90.20
2018,11,07,08,12,91.60
2018,11,07,08,13,93.90
2018,11,07,08,14,96.20
2018,11,07,08,15,97.70
2018,11,07,08,16,99.90
2018,11,07,08,17,102.40
2018,11,07,08,18,104.30
2018,11,07,08,19,105.90
2018,11,07,08,20,108.30
2018,11,07,08,21,110.50
2018,11,07,08,22,112.80
2018,11,07,08,23,114.40
2018,11,07,08,24,116.70
2018,11,07,08,25,119.10
2018,11,07,08,26,120.70
2018,11,07,08,27,122.60
2018,11,07,08,28,126.70
2018,11,07,08,29,128.40
2018,11,07,08,30,130.70
2018,11,07,08,31,133.50
2018,11,07,08,32,136.30
2018,11,07,08,33,138.60
2018,11,07,08,34,142.10
2018,11,07,08,35,144.50
2018,11,07,08,36,146.80
2018,11,07,08,37,148.60
2018,11,07,08,38,150.40
2018,11,07,08,39,152.60
2018,11,07,08,40,155.00
2018,11,07,08,41,156.50
2018,11,07,08,42,159.70
2018,11,07,08,43,162.60
2018,11,07,08,44,164.40
2018,11,07,08,45,166.70
2018,11,07,08,46,169.30
2018,11,07,08,47,171.30
2018,11,07,08,48,173.70
2018,11,07,08,49,176.00
2018,11,07,08,50,178.10
2018,11,07,08,51,180.80
2018,11,07,08,52,181.30
2018,11,07,08,53,183.60
2018,11,07,08,54,186.40
2018,11,07,08,55,189.20
2018,11,07,08,56,191.50
2018,11,07,08,57,192.90
2018,11,07,08,58,195.30
2018,11,07,08,59,197.70
2018,11,07,09,00,200.50
2018,11,07,09,01,202.00
2018,11,07,09,02,205.00
2018,11,07,09,03,206.90
2018,11,07,09,04,207.40
2018,11,07,09,05,210.40
2018,11,07,09,06,213.50
2018,11,07,09,07,215.30
2018,11,07,09,08,217.60
2018,11,07,09,09,219.90
2018,11,07,09,10,221.50
2018,11,07,09,11,223.00
2018,11,07,09,12,224.00
2018,11,07,09,13,226.30
2018,11,07,09,14,228.60
2018,11,07,09,15,229.90
2018,11,07,09,16,231.10
2018,11,07,09,17,234.00
2018,11,07,09,18,235.10
2018,11,07,09,19,236.00
2018,11,07,09,20,236.80
2018,11,07,09,21,239.20
2018,11,07,09,22,241.00
2018,11,07,09,23,241.80
2018,11,07,09,24,243.60
2018,11,07,09,25,244.00
2018,11,07,09,26,245.70
2018,11,07,09,27,248.20
2018,11,07,09,28,250.30
2018,11,07,09,29,251.90
2018,11,07,09,30,253.00
2018,11,07,09,31,253.00
2018,11,07,09,32,254.90
2018,11,07,09,33,257.00
2018,11,07,09,34,257.30
2018,11,07,09,35,258.90
2018,11,07,09,36,261.20
2018,11,07,09,37,263.50
2018,11,07,09,38,264.00
2018,11,07,09,39,265.40
2018,11,07,09,40,267.70
2018,11,07,09,41,269.90
2018,11,07,09,42,271.60
2018,11,07,09,43,273.60
2018,11,07,09,44,277.60
2018,11,07,09,45,278.00
2018,11,07,09,46,279.80
2018,11,07,09,47,283.90
2018,11,07,09,48,286.80
2018,11,07,09,49,289.60
2018,11,07,09,50,292.10
2018,11,07,09,51,294.20
2018,11,07,09,52,295.80
2018,11,07,09,53,298.10
2018,11,07,09,54,301.00
2018,11,07,09,55,302.00
2018,11,07,09,56,304.10
2018,11,07,09,57,306.50
2018,11,07,09,58,308.40
2018,11,07,09,59,310.00
2018,11,07,10,00,312.40
2018,11,07,10,01,314.70
2018,11,07,10,02,316.00
2018,11,07,10,03,316.50
2018,11,07,10,04,318.80
2018,11,07,10,05,320.00
2018,11,07,10,06,321.40
2018,11,07,10,07,322.90
2018,11,07,10,08,325.00
2018,11,07,10,09,325.50
2018,11,07,10,10,327.00
2018,11,07,10,11,328.10
2018,11,07,10,12,329.70
2018,11,07,10,13,330.00
2018,11,07,10,14,332.40
2018,11,07,10,15,334.00
2018,11,07,10,16,334.90
2018,11,07,10,17,337.20
2018,11,07,10,18,338.80
2018,11,07,10,19,340.80
2018,11,07,10,20,341.40
2018,11,07,10,21,343.70
2018,11,07,10,22,345.00
2018,11,07,10,23,345.60
2018,11,07,10,24,347.50
2018,11,07,10,25,350.00
2018,11,07,10,26,352.00
2018,11,07,10,27,352.40
2018,11,07,10,28,353.90
2018,11,07,10,29,355.00
2018,11,07,10,30,356.50
2018,11,07,10,31,358.90
2018,11,07,10,32,359.20
2018,11,07,10,33,360.00
2018,11,07,10,34,363.00
2018,11,07,10,35,366.00
2018,11,07,10,36,366.80
2018,11,07,10,37,369.10
2018,11,07,10,38,371.00
2018,11,07,10,39,370.20
2018,11,07,10,40,371.60
2018,11,07,10,41,375.30
2018,11,07,10,42,377.60
2018,11,07,10,43,376.30
2018,11,07,10,44,378.60
2018,11,07,10,45,380.00
2018,11,07,10,46,380.50
2018,11,07,10,47,383.80
2018,11,07,10,48,385.00
2018,11,07,10,49,387.10
2018,11,07,10,50,388.60
2018,11,07,10,51,390.00
2018,11,07,10,52,390.00
2018,11,07,10,53,391.40
2018,11,07,10,54,392.00
2018,11,07,10,55,394.00
2018,11,07,10,56,394.00
2018,11,07,10,57,394.90
2018,11,07,10,58,396.00
2018,11,07,10,59,396.80
2018,11,07,11,00,398.80
2018,11,07,11,01,399.30
2018,11,07,11,02,401.00
2018,11,07,11,03,402.00
2018,11,07,11,04,403.60
2018,11,07,11,05,404.00
2018,11,07,11,06,405.80
2018,11,07,11,07,406.00
2018,11,07,11,08,406.70
2018,11,07,11,09,409.00
2018,11,07,11,10,410.00
2018,11,07,11,11,410.00
2018,11,07,11,12,371.40
2018,11,07,11,13,363.20
2018,11,07,11,14,403.60
2018,11,07,11,15,415.00
2018,11,07,11,16,415.00
2018,11,07,11,17,415.00
2018,11,07,11,18,417.00
2018,11,07,11,19,410.60
2018,11,07,11,20,383.00
2018,11,07,11,21,287.30
2018,11,07,11,22,276.90
2018,11,07,11,23,304.30
2018,11,07,11,24,239.10
2018,11,07,11,25,251.30
2018,11,07,11,26,241.00
2018,11,07,11,27,135.10
2018,11,07,11,28,54.50
2018,11,07,11,29,53.00
2018,11,07,11,30,53.00
2018,11,07,11,31,53.30
2018,11,07,11,32,54.00
2018,11,07,11,33,57.60
2018,11,07,11,34,130.00
2018,11,07,11,35,216.20
2018,11,07,11,36,259.20
2018,11,07,11,37,323.40
2018,11,07,11,38,380.80
2018,11,07,11,39,395.60
2018,11,07,11,40,335.50
2018,11,07,11,41,236.90
2018,11,07,11,42,185.40
2018,11,07,11,43,239.00
2018,11,07,11,44,323.60
2018,11,07,11,45,429.40
2018,11,07,11,46,431.00
2018,11,07,11,47,429.20
2018,11,07,11,48,429.00
2018,11,07,11,49,429.00
2018,11,07,11,50,429.00
2018,11,07,11,51,429.00
2018,11,07,11,52,431.20
2018,11,07,11,53,431.00
2018,11,07,11,54,429.40
2018,11,07,11,55,431.00
2018,11,07,11,56,431.00
2018,11,07,11,57,433.00
2018,11,07,11,58,437.40
2018,11,07,11,59,439.40
2018,11,07,12,00,443.40
2018,11,07,12,01,445.40
2018,11,07,12,02,447.10
2018,11,07,12,03,449.40
2018,11,07,12,04,451.70
2018,11,07,12,05,455.20
2018,11,07,12,06,459.80
2018,11,07,12,07,462.80
2018,11,07,12,08,466.10
2018,11,07,12,09,470.10
2018,11,07,12,10,459.20
2018,11,07,12,11,457.00
2018,11,07,12,12,363.10
2018,11,07,12,13,134.30
2018,11,07,12,14,119.30
2018,11,07,12,15,121.50
2018,11,07,12,16,126.60
2018,11,07,12,17,150.60
2018,11,07,12,18,131.00
2018,11,07,12,19,118.00
2018,11,07,12,20,118.00
2018,11,07,12,21,116.50
2018,11,07,12,22,113.10
2018,11,07,12,23,107.90
2018,11,07,12,24,98.80
2018,11,07,12,25,88.70
2018,11,07,12,26,78.00
2018,11,07,12,27,67.40
2018,11,07,12,28,62.70
2018,11,07,12,29,70.10
2018,11,07,12,30,74.60
2018,11,07,12,31,67.00
2018,11,07,12,32,59.50
2018,11,07,12,33,56.40
2018,11,07,12,34,54.20
2018,11,07,12,35,54.00
2018,11,07,12,36,54.00
2018,11,07,12,37,54.00
2018,11,07,12,38,53.30
2018,11,07,12,39,53.00
2018,11,07,12,40,53.00
2018,11,07,12,41,53.00
2018,11,07,12,42,53.00
2018,11,07,12,43,54.60
2018,11,07,12,44,69.00
2018,11,07,12,45,82.80
2018,11,07,12,46,87.70
2018,11,07,12,47,107.70
2018,11,07,12,48,105.40
2018,11,07,12,49,70.80
2018,11,07,12,50,60.00
2018,11,07,12,51,58.30
2018,11,07,12,52,68.80
2018,11,07,12,53,75.60
2018,11,07,12,54,54.70
2018,11,07,12,55,50.80
2018,11,07,12,56,49.00
2018,11,07,12,57,49.00
2018,11,07,12,58,51.00
2018,11,07,12,59,51.00
2018,11,07,13,00,50.10
2018,11,07,13,01,49.00
2018,11,07,13,02,49.00
2018,11,07,13,03,47.30
2018,11,07,13,04,47.00
2018,11,07,13,05,47.00
2018,11,07,13,06,47.00
2018,11,07,13,07,47.00
2018,11,07,13,08,47.00
2018,11,07,13,09,47.30
2018,11,07,13,10,53.00
2018,11,07,13,11,53.00
2018,11,07,13,12,58.00
2018,11,07,13,13,71.80
2018,11,07,13,14,71.80
2018,11,07,13,15,60.20
2018,11,07,13,16,53.00
2018,11,07,13,17,54.00
2018,11,07,13,18,82.50
2018,11,07,13,19,148.80
2018,11,07,13,20,172.00
2018,11,07,13,21,99.30
2018,11,07,13,22,77.50
2018,11,07,13,23,87.20
2018,11,07,13,24,72.30
2018,11,07,13,25,56.10
2018,11,07,13,26,53.20
2018,11,07,13,27,49.00
2018,11,07,13,28,47.00
2018,11,07,13,29,47.00
2018,11,07,13,30,48.10
2018,11,07,13,31,49.00
2018,11,07,13,32,47.30
2018,11,07,13,33,47.00
2018,11,07,13,34,48.20
2018,11,07,13,35,53.10
2018,11,07,13,36,54.30
2018,11,07,13,37,48.60
2018,11,07,13,38,47.00
2018,11,07,13,39,46.80
2018,11,07,13,40,46.00
2018,11,07,13,41,46.00
2018,11,07,13,42,44.80
2018,11,07,13,43,44.00
2018,11,07,13,44,44.00
2018,11,07,13,45,43.60
2018,11,07,13,46,42.00
2018,11,07,13,47,42.00
2018,11,07,13,48,53.40
2018,11,07,13,49,70.50
2018,11,07,13,50,68.80
2018,11,07,13,51,52.60
2018,11,07,13,52,45.20
2018,11,07,13,53,42.00
2018,11,07,13,54,42.00
2018,11,07,13,55,42.00
2018,11,07,13,56,42.00
2018,11,07,13,57,45.60
2018,11,07,13,58,81.40
2018,11,07,13,59,122.50
2018,11,07,14,00,90.70
2018,11,07,14,01,48.40
2018,11,07,14,02,42.10
2018,11,07,14,03,44.50
2018,11,07,14,04,45.30
2018,11,07,14,05,43.00
2018,11,07,14,06,40.70
2018,11,07,14,07,43.40
2018,11,07,14,08,44.00
2018,11,07,14,09,46.70
2018,11,07,14,10,51.30
2018,11,07,14,11,60.50
2018,11,07,14,12,93.90
2018,11,07,14,13,112.70
2018,11,07,14,14,76.40
2018,11,07,14,15,51.50
2018,11,07,14,16,42.30
2018,11,07,14,17,39.50
2018,11,07,14,18,37.50
2018,11,07,14,19,37.00
2018,11,07,14,20,37.00
2018,11,07,14,21,37.00
2018,11,07,14,22,37.80
2018,11,07,14,23,39.00
2018,11,07,14,24,37.50
2018,11,07,14,25,37.00
2018,11,07,14,26,37.00
2018,11,07,14,27,37.00
2018,11,07,14,28,36.10
2018,11,07,14,29,35.00
2018,11,07,14,30,35.00
2018,11,07,14,31,35.00
2018,11,07,14,32,35.00
2018,11,07,14,33,35.00
2018,11,07,14,34,36.00
2018,11,07,14,35,35.70
2018,11,07,14,36,35.00
2018,11,07,14,37,35.00
2018,11,07,14,38,35.00
2018,11,07,14,39,35.00
2018,11,07,14,40,35.00
2018,11,07,14,41,35.00
2018,11,07,14,42,35.00
2018,11,07,14,43,35.00
2018,11,07,14,44,35.00
2018,11,07,14,45,34.30
2018,11,07,14,46,34.10
2018,11,07,14,47,33.60
2018,11,07,14,48,33.00
2018,11,07,14,49,35.80
2018,11,07,14,50,44.00
2018,11,07,14,51,41.40
2018,11,07,14,52,34.90
2018,11,07,14,53,33.00
2018,11,07,14,54,32.20
2018,11,07,14,55,32.00
2018,11,07,14,56,32.00
2018,11,07,14,57,32.00
2018,11,07,14,58,32.60
2018,11,07,14,59,33.00
2018,11,07,15,00,33.00
2018,11,07,15,01,32.80
2018,11,07,15,02,32.00
2018,11,07,15,03,32.00
2018,11,07,15,04,32.00
2018,11,07,15,05,32.00
2018,11,07,15,06,30.20
2018,11,07,15,07,30.00
2018,11,07,15,08,30.00
2018,11,07,15,09,30.00
2018,11,07,15,10,28.70
2018,11,07,15,11,29.50
2018,11,07,15,12,30.00
2018,11,07,15,13,30.00
2018,11,07,15,14,30.00
2018,11,07,15,15,29.00
2018,11,07,15,16,28.00
2018,11,07,15,17,28.00
2018,11,07,15,18,28.00
2018,11,07,15,19,28.00
2018,11,07,15,20,28.00
2018,11,07,15,21,28.00
2018,11,07,15,22,26.70
2018,11,07,15,23,26.00
2018,11,07,15,24,26.00
2018,11,07,15,25,25.00
2018,11,07,15,26,25.00
2018,11,07,15,27,25.00
2018,11,07,15,28,25.00
2018,11,07,15,29,23.30
2018,11,07,15,30,23.00
2018,11,07,15,31,23.00
2018,11,07,15,32,23.00
2018,11,07,15,33,23.00
2018,11,07,15,34,23.00
2018,11,07,15,35,23.00
2018,11,07,15,36,23.00
2018,11,07,15,37,23.00
2018,11,07,15,38,22.10
2018,11,07,15,39,21.00
2018,11,07,15,40,21.00
2018,11,07,15,41,21.00
2018,11,07,15,42,21.00
2018,11,07,15,43,21.00
2018,11,07,15,44,21.00
2018,11,07,15,45,21.00
2018,11,07,15,46,21.00
2018,11,07,15,47,21.00
2018,11,07,15,48,21.00
2018,11,07,15,49,21.00
2018,11,07,15,50,21.00
2018,11,07,15,51,19.80
2018,11,07,15,52,19.00
2018,11,07,15,53,19.00
2018,11,07,15,54,19.00
2018,11,07,15,55,19.00
2018,11,07,15,56,19.00
2018,11,07,15,57,19.00
2018,11,07,15,58,18.20
2018,11,07,15,59,18.00
2018,11,07,16,00,18.00
2018,11,07,16,01,18.00
2018,11,07,16,02,18.00
2018,11,07,16,03,18.00
2018,11,07,16,04,18.00
2018,11,07,16,05,17.80
2018,11,07,16,06,16.00
2018,11,07,16,07,16.00
2018,11,07,16,08,16.00
2018,11,07,16,09,16.00
2018,11,07,16,10,16.00
2018,11,07,16,11,16.00
2018,11,07,16,12,16.00
2018,11,07,16,13,15.20
2018,11,07,16,14,14.00
2018,11,07,16,15,14.00
2018,11,07,16,16,14.00
2018,11,07,16,17,13.80
2018,11,07,16,18,12.00
2018,11,07,16,19,12.00
2018,11,07,16,20,12.00
2018,11,07,16,21,12.00
2018,11,07,16,22,11.10
2018,11,07,16,23,11.00
2018,11,07,16,24,11.00
2018,11,07,16,25,10.10
2018,11,07,16,26,9.00
2018,11,07,16,27,9.00
2018,11,07,16,28,9.00
2018,11,07,16,29,8.70
2018,11,07,16,30,7.00
2018,11,07,16,31,7.00
2018,11,07,16,32,7.00
2018,11,07,16,33,5.50
2018,11,07,16,34,5.00
2018,11,07,16,35,5.00
2018,11,07,16,36,5.00
2018,11,07,16,37,5.00
2018,11,07,16,38,5.00
2018,11,07,16,39,1.10
2018,11,07,16,40,0.00
2018,11,07,16,41,0.00
2018,11,07,16,42,0.00
2018,11,07,16,43,0.00
2018,11,07,16,44,0.00
2018,11,07,16,45,0.00
2018,11,07,16,46,0.00
2018,11,07,16,47,0.00
2018,11,07,16,48,0.00
2018,11,07,16,49,0.00
2018,11,07,16,50,0.00
2018,11,07,16,51,0.00
2018,11,07,16,52,0.00
2018,11,07,16,53,0.00
2018,11,07,16,54,0.00
2018,11,07,16,55,0.00
2018,11,07,16,56,0.00
2018,11,07,16,57,0.00
2018,11,07,16,58,0.00
2018,11,07,16,59,0.00
2018,11,07,17,00,0.00
2018,11,07,17,01,0.00
2018,11,07,17,02,0.00
2018,11,07,17,03,0.00
2018,11,07,17,04,0.00
2018,11,07,17,05,0.00
2018,11,07,17,06,0.00
2018,11,07,17,07,0.00
2018,11,07,17,08,0.00
2018,11,07,17,09,0.00
2018,11,07,17,10,0.00
2018,11,07,17,11,0.00
2018,11,07,17,12,0.00
2018,11,07,17,13,0.00
2018,11,07,17,14,0.00
2018,11,07,17,15,0.00
2018,11,07,17,16,0.00
2018,11,07,17,17,0.00
2018,11,07,17,18,0.00
2018,11,07,17,19,0.00
2018,11,07,17,20,0.00
2018,11,07,17,21,0.00
2018,11,07,17,22,0.00
2018,11,07,17,23,0.00
2018,11,07,17,24,0.00
2018,11,07,17,25,0.00
2018,11,07,17,26,0.00
2018,11,07,17,27,0.00
2018,11,07,17,28,0.00
2018,11,07,17,29,0.00
2018,11,07,17,30,0.00